Time,TemperatureF,DewpointF,PressureIn,WindDirection,WindDirectionDegrees,WindSpeedMPH,WindSpeedGustMPH,Humidity,HourlyPrecipIn,Conditions,Clouds,dailyrainin,SoftwareType,DateUTC
2013-01-13 00:05:00,61.7,58.0,30.04,SSW,205,0.0,-999.0,87,-99.99,,,0.00,weatherlink.com 1.10,2013-01-13 05:05:00,
2013-01-13 00:20:00,61.6,58.0,30.04,NW,304,0.0,-999.0,87,-99.99,,,0.00,weatherlink.com 1.10,2013-01-13 05:20:00,
2013-01-13 00:35:00,61.5,58.0,30.04,SSE,168,0.0,-999.0,87,-99.99,,,0.00,weatherlink.com 1.10,2013-01-13 05:35:00,
2013-01-13 00:50:00,61.5,58.0,30.04,NNE,12,0.0,-999.0,87,-99.99,,,0.00,weatherlink.com 1.10,2013-01-13 05:50:00,
2013-01-13 01:05:00,61.4,58.0,30.05,NE,35,0.0,-999.0,87,-99.99,,,0.00,weatherlink.com 1.10,2013-01-13 06:05:00,
2013-01-13 01:20:00,61.3,57.0,30.04,NW,305,0.0,-999.0,87,-99.99,,,0.00,weatherlink.com 1.10,2013-01-13 06:20:00,
2013-01-13 01:35:00,61.2,58.0,30.03,South,178,0.0,-999.0,88,-99.99,,,0.00,weatherlink.com 1.10,2013-01-13 06:35:00,
2013-01-13 01:50:00,61.1,58.0,30.03,WNW,283,0.0,-999.0,88,-99.99,,,0.00,weatherlink.com 1.10,2013-01-13 06:50:00,
2013-01-13 02:05:00,61.0,58.0,30.03,SW,220,0.0,-999.0,88,-99.99,,,0.00,weatherlink.com 1.10,2013-01-13 07:05:00,
2013-01-13 02:20:00,60.9,57.0,30.03,NW,318,0.0,-999.0,88,-99.99,,,0.00,weatherlink.com 1.10,2013-01-13 07:20:00,
2013-01-13 02:35:00,60.7,57.0,30.03,NE,36,0.0,-999.0,88,-99.99,,,0.00,weatherlink.com 1.10,2013-01-13 07:35:00,
2013-01-13 02:50:00,60.6,57.0,30.03,NNE,27,0.0,-999.0,88,-99.99,,,0.00,weatherlink.com 1.10,2013-01-13 07:50:00,
2013-01-13 03:05:00,60.7,57.0,30.02,North,10,0.0,-999.0,88,-99.99,,,0.00,weatherlink.com 1.10,2013-01-13 08:05:00,
2013-01-13 03:20:00,60.6,57.0,30.02,ENE,59,3.0,-999.0,89,-99.99,,,0.00,weatherlink.com 1.10,2013-01-13 08:20:00,
2013-01-13 03:35:00,60.1,57.0,30.02,West,264,0.0,-999.0,90,-99.99,,,0.00,weatherlink.com 1.10,2013-01-13 08:35:00,
2013-01-13 03:50:00,59.7,57.0,30.02,NNE,33,0.0,-999.0,91,-99.99,,,0.00,weatherlink.com 1.10,2013-01-13 08:50:00,
2013-01-13 04:05:00,59.5,57.0,30.02,SW,227,1.0,-999.0,91,-99.99,,,0.00,weatherlink.com 1.10,2013-01-13 09:05:00,
2013-01-13 04:20:00,59.2,57.0,30.01,WNW,285,0.0,-999.0,92,-99.99,,,0.00,weatherlink.com 1.10,2013-01-13 09:20:00,
2013-01-13 04:35:00,59.1,57.0,30.01,West,268,1.0,-999.0,92,-99.99,,,0.00,weatherlink.com 1.10,2013-01-13 09:35:00,
2013-01-13 04:50:00,59.1,57.0,30.02,WNW,292,0.0,-999.0,92,-99.99,,,0.00,weatherlink.com 1.10,2013-01-13 09:50:00,
2013-01-13 05:05:00,59.0,57.0,30.01,NNE,29,0.0,-999.0,92,-99.99,,,0.00,weatherlink.com 1.10,2013-01-13 10:05:00,
2013-01-13 05:20:00,59.0,57.0,30.01,NE,34,0.0,-999.0,92,-99.99,,,0.00,weatherlink.com 1.10,2013-01-13 10:20:00,
2013-01-13 05:35:00,59.2,57.0,30.02,NNE,31,0.0,-999.0,92,-99.99,,,0.00,weatherlink.com 1.10,2013-01-13 10:35:00,
2013-01-13 05:50:00,59.2,57.0,30.04,North,349,0.0,-999.0,92,-99.99,,,0.00,weatherlink.com 1.10,2013-01-13 10:50:00,
2013-01-13 06:05:00,59.2,57.0,30.04,WNW,290,0.0,-999.0,93,-99.99,,,0.00,weatherlink.com 1.10,2013-01-13 11:05:00,
2013-01-13 06:20:00,59.1,57.0,30.05,NNE,23,0.0,-999.0,93,-99.99,,,0.00,weatherlink.com 1.10,2013-01-13 11:20:00,
2013-01-13 06:35:00,59.0,57.0,30.05,NNE,26,0.0,-999.0,93,-99.99,,,0.00,weatherlink.com 1.10,2013-01-13 11:35:00,
2013-01-13 06:50:00,58.8,57.0,30.06,West,270,0.0,-999.0,94,-99.99,,,0.00,weatherlink.com 1.10,2013-01-13 11:50:00,
2013-01-13 07:05:00,58.7,57.0,30.06,WNW,283,0.0,-999.0,94,-99.99,,,0.00,weatherlink.com 1.10,2013-01-13 12:05:00,
2013-01-13 07:20:00,58.6,57.0,30.07,NW,320,0.0,-999.0,95,-99.99,,,0.01,weatherlink.com 1.10,2013-01-13 12:20:00,
2013-01-13 07:38:00,58.6,57.0,30.07,NNW,327,0.0,-999.0,95,-99.99,,,0.01,weatherlink.com 1.10,2013-01-13 12:38:00,
2013-01-13 07:50:00,58.5,57.0,30.08,WSW,243,0.0,-999.0,95,-99.99,,,0.01,weatherlink.com 1.10,2013-01-13 12:50:00,
2013-01-13 08:05:00,58.5,57.0,30.07,WSW,245,0.0,-999.0,96,-99.99,,,0.02,weatherlink.com 1.10,2013-01-13 13:05:00,
2013-01-13 08:20:00,58.5,57.0,30.08,SW,236,0.0,-999.0,96,-99.99,,,0.02,weatherlink.com 1.10,2013-01-13 13:20:00,
2013-01-13 08:35:00,58.4,57.0,30.08,NNE,31,1.0,-999.0,96,-99.99,,,0.02,weatherlink.com 1.10,2013-01-13 13:35:00,
2013-01-13 08:50:00,58.4,57.0,30.08,North,9,0.0,-999.0,96,-99.99,,,0.02,weatherlink.com 1.10,2013-01-13 13:50:00,
2013-01-13 09:05:00,58.4,57.0,30.08,NW,318,0.0,-999.0,96,-99.99,,,0.02,weatherlink.com 1.10,2013-01-13 14:05:00,
2013-01-13 09:20:00,58.5,58.0,30.09,ESE,112,0.0,-999.0,97,-99.99,,,0.02,weatherlink.com 1.10,2013-01-13 14:20:00,
2013-01-13 09:35:00,58.5,58.0,30.08,ESE,107,0.0,-999.0,97,-99.99,,,0.02,weatherlink.com 1.10,2013-01-13 14:35:00,
2013-01-13 09:50:00,58.6,58.0,30.09,SE,146,0.0,-999.0,97,-99.99,,,0.02,weatherlink.com 1.10,2013-01-13 14:50:00,
2013-01-13 10:05:00,58.7,58.0,30.09,NNE,21,0.0,-999.0,97,-99.99,,,0.02,weatherlink.com 1.10,2013-01-13 15:05:00,
2013-01-13 10:20:00,58.8,58.0,30.08,NW,318,0.0,-999.0,97,-99.99,,,0.02,weatherlink.com 1.10,2013-01-13 15:20:00,
2013-01-13 10:35:00,58.8,58.0,30.08,NNE,33,0.0,-999.0,97,-99.99,,,0.02,weatherlink.com 1.10,2013-01-13 15:35:00,
2013-01-13 10:50:00,58.8,58.0,30.08,North,6,0.0,-999.0,97,-99.99,,,0.02,weatherlink.com 1.10,2013-01-13 15:50:00,
2013-01-13 11:05:00,58.9,58.0,30.08,ENE,57,0.0,-999.0,97,-99.99,,,0.02,weatherlink.com 1.10,2013-01-13 16:05:00,
2013-01-13 11:20:00,59.0,58.0,30.07,East,90,0.0,-999.0,97,-99.99,,,0.02,weatherlink.com 1.10,2013-01-13 16:20:00,
2013-01-13 11:35:00,59.1,58.0,30.07,NNW,344,0.0,-999.0,97,-99.99,,,0.03,weatherlink.com 1.10,2013-01-13 16:35:00,
2013-01-13 11:50:00,59.3,59.0,30.06,WNW,298,0.0,-999.0,97,-99.99,,,0.03,weatherlink.com 1.10,2013-01-13 16:50:00,
2013-01-13 12:05:00,59.4,59.0,30.05,East,95,0.0,-999.0,97,-99.99,,,0.03,weatherlink.com 1.10,2013-01-13 17:05:00,
2013-01-13 12:20:00,59.5,59.0,30.04,WNW,283,0.0,-999.0,97,-99.99,,,0.03,weatherlink.com 1.10,2013-01-13 17:20:00,
2013-01-13 12:35:00,59.8,59.0,30.03,ESE,103,0.0,-999.0,97,-99.99,,,0.03,weatherlink.com 1.10,2013-01-13 17:35:00,
2013-01-13 12:50:00,60.2,59.0,30.03,WSW,256,2.0,-999.0,97,-99.99,,,0.03,weatherlink.com 1.10,2013-01-13 17:50:00,
2013-01-13 13:05:00,60.2,59.0,30.02,NE,40,0.0,-999.0,97,-99.99,,,0.03,weatherlink.com 1.10,2013-01-13 18:05:00,
2013-01-13 13:20:00,60.3,60.0,30.02,West,277,0.0,-999.0,97,-99.99,,,0.03,weatherlink.com 1.10,2013-01-13 18:20:00,
2013-01-13 13:35:00,60.5,59.0,30.02,NE,48,0.0,-999.0,96,-99.99,,,0.04,weatherlink.com 1.10,2013-01-13 18:35:00,
2013-01-13 13:50:00,60.9,60.0,30.01,NW,320,0.0,-999.0,96,-99.99,,,0.04,weatherlink.com 1.10,2013-01-13 18:50:00,
2013-01-13 14:05:00,61.1,60.0,30.01,WNW,297,0.0,-999.0,96,-99.99,,,0.04,weatherlink.com 1.10,2013-01-13 19:05:00,
2013-01-13 14:20:00,61.4,60.0,30.01,NNE,18,0.0,-999.0,95,-99.99,,,0.04,weatherlink.com 1.10,2013-01-13 19:20:00,
2013-01-13 14:35:00,62.2,60.0,30.01,WSW,254,0.0,-999.0,93,-99.99,,,0.04,weatherlink.com 1.10,2013-01-13 19:35:00,
2013-01-13 14:50:00,63.1,61.0,30.00,North,3,0.0,-999.0,91,-99.99,,,0.04,weatherlink.com 1.10,2013-01-13 19:50:00,
2013-01-13 15:05:00,63.9,60.0,30.00,NW,308,5.0,-999.0,88,-99.99,,,0.04,weatherlink.com 1.10,2013-01-13 20:05:00,
2013-01-13 15:20:00,63.7,61.0,30.00,North,3,3.0,-999.0,89,-99.99,,,0.04,weatherlink.com 1.10,2013-01-13 20:20:00,
2013-01-13 15:35:00,63.5,61.0,30.00,NNE,17,0.0,-999.0,90,-99.99,,,0.04,weatherlink.com 1.10,2013-01-13 20:35:00,
2013-01-13 15:50:00,63.3,60.0,30.00,East,95,2.0,-999.0,90,-99.99,,,0.04,weatherlink.com 1.10,2013-01-13 20:50:00,
2013-01-13 16:05:00,63.1,61.0,30.00,NNE,20,0.0,-999.0,91,-99.99,,,0.04,weatherlink.com 1.10,2013-01-13 21:05:00,
2013-01-13 16:20:00,63.1,60.0,30.01,NE,55,0.0,-999.0,90,-99.99,,,0.04,weatherlink.com 1.10,2013-01-13 21:20:00,
2013-01-13 16:35:00,63.0,60.0,30.01,ESE,103,2.0,-999.0,90,-99.99,,,0.04,weatherlink.com 1.10,2013-01-13 21:35:00,
2013-01-13 16:50:00,63.0,60.0,30.01,NW,310,0.0,-999.0,89,-99.99,,,0.04,weatherlink.com 1.10,2013-01-13 21:50:00,
2013-01-13 17:05:00,62.9,60.0,30.01,NNW,335,0.0,-999.0,89,-99.99,,,0.04,weatherlink.com 1.10,2013-01-13 22:05:00,
2013-01-13 17:20:00,62.8,60.0,30.01,West,279,0.0,-999.0,90,-99.99,,,0.04,weatherlink.com 1.10,2013-01-13 22:20:00,
2013-01-13 17:35:00,62.7,60.0,30.00,NW,316,0.0,-999.0,90,-99.99,,,0.04,weatherlink.com 1.10,2013-01-13 22:35:00,
2013-01-13 17:50:00,62.7,60.0,30.01,NNW,334,0.0,-999.0,89,-99.99,,,0.04,weatherlink.com 1.10,2013-01-13 22:50:00,
2013-01-13 18:05:00,62.9,60.0,30.01,SSW,212,0.0,-999.0,89,-99.99,,,0.04,weatherlink.com 1.10,2013-01-13 23:05:00,
2013-01-13 18:20:00,62.7,60.0,30.01,NE,34,1.0,-999.0,90,-99.99,,,0.05,weatherlink.com 1.10,2013-01-13 23:20:00,
2013-01-13 18:35:00,62.4,60.0,30.01,South,180,0.0,-999.0,91,-99.99,,,0.08,weatherlink.com 1.10,2013-01-13 23:35:00,
2013-01-13 18:50:00,61.9,60.0,30.02,NNW,346,0.0,-999.0,93,-99.99,,,0.12,weatherlink.com 1.10,2013-01-13 23:50:00,
2013-01-13 19:05:00,61.6,60.0,30.02,East,90,0.0,-999.0,93,-99.99,,,0.19,weatherlink.com 1.10,2013-01-14 00:05:00,
2013-01-13 19:20:00,61.3,60.0,30.02,ENE,77,0.0,-999.0,94,-99.99,,,0.24,weatherlink.com 1.10,2013-01-14 00:20:00,
2013-01-13 19:35:00,61.2,60.0,30.02,SE,138,0.0,-999.0,95,-99.99,,,0.30,weatherlink.com 1.10,2013-01-14 00:35:00,
2013-01-13 19:50:00,61.1,60.0,30.04,SW,229,2.0,-999.0,96,-99.99,,,0.59,weatherlink.com 1.10,2013-01-14 00:50:00,
2013-01-13 20:05:00,60.2,59.0,30.03,NE,49,1.0,-999.0,95,-99.99,,,0.81,weatherlink.com 1.10,2013-01-14 01:05:00,
2013-01-13 20:20:00,59.9,59.0,30.04,SW,225,5.0,-999.0,95,-99.99,,,0.87,weatherlink.com 1.10,2013-01-14 01:20:00,
2013-01-13 20:35:00,59.6,58.0,30.04,SE,144,0.0,-999.0,95,-99.99,,,0.93,weatherlink.com 1.10,2013-01-14 01:35:00,
2013-01-13 20:50:00,59.4,58.0,30.04,SE,128,1.0,-999.0,95,-99.99,,,1.00,weatherlink.com 1.10,2013-01-14 01:50:00,
2013-01-13 21:05:00,59.2,58.0,30.05,South,191,0.0,-999.0,96,-99.99,,,1.07,weatherlink.com 1.10,2013-01-14 02:05:00,
2013-01-13 21:20:00,59.1,58.0,30.05,NE,39,4.0,-999.0,96,-99.99,,,1.10,weatherlink.com 1.10,2013-01-14 02:20:00,
2013-01-13 21:35:00,58.8,57.0,30.05,SSE,160,0.0,-999.0,95,-99.99,,,1.12,weatherlink.com 1.10,2013-01-14 02:35:00,
2013-01-13 21:50:00,58.5,57.0,30.06,SSE,162,0.0,-999.0,95,-99.99,,,1.12,weatherlink.com 1.10,2013-01-14 02:50:00,
2013-01-13 22:05:00,58.2,57.0,30.07,West,266,0.0,-999.0,95,-99.99,,,1.13,weatherlink.com 1.10,2013-01-14 03:05:00,
2013-01-13 22:20:00,57.3,56.0,30.07,East,98,0.0,-999.0,94,-99.99,,,1.13,weatherlink.com 1.10,2013-01-14 03:20:00,
2013-01-13 22:35:00,56.3,55.0,30.08,NE,41,0.0,-999.0,94,-99.99,,,1.14,weatherlink.com 1.10,2013-01-14 03:35:00,
2013-01-13 22:50:00,54.5,53.0,30.09,NNE,31,0.0,-999.0,93,-99.99,,,1.14,weatherlink.com 1.10,2013-01-14 03:50:00,
2013-01-13 23:05:00,52.6,51.0,30.09,WNW,287,3.0,-999.0,93,-99.99,,,1.14,weatherlink.com 1.10,2013-01-14 04:05:00,
2013-01-13 23:20:00,50.5,48.0,30.10,NNE,27,4.0,-999.0,92,-99.99,,,1.14,weatherlink.com 1.10,2013-01-14 04:20:00,
2013-01-13 23:35:00,48.8,47.0,30.10,NNE,30,2.0,-999.0,93,-99.99,,,1.14,weatherlink.com 1.10,2013-01-14 04:35:00,
2013-01-13 23:50:00,47.4,46.0,30.11,ESE,109,1.0,-999.0,93,-99.99,,,1.14,weatherlink.com 1.10,2013-01-14 04:50:00,